Weather History for KLTS - July, 2013

Change the Weather History Date:

Tuesday, July 2, 2013

  Actual Average Record
Temperature  
Mean Temperature 74 °F -  
Max Temperature 90 °F 91 °F 104 °F (1998)
Min Temperature 58 °F 69 °F 58 °F (2013)
Cooling Degree Days 8    
Growing Degree Days 24 (Base 50)    
Moisture  
Dew Point 44 °F    
Average Humidity 34    
Maximum Humidity 64    
Minimum Humidity 17    
Precipitation  
Precipitation 0.00 in - - ()
Sea Level Pressure  
Sea Level Pressure 30.10 in    
Wind  
Wind Speed 6 mph (North)    
Max Wind Speed 13 mph    
Max Gust Speed 17 mph    
Visibility 10 miles    
Events      
Averages and records for this station are not official NWS values.
T = Trace of Precipitation, MM = Missing Value Source: NWS Daily Summary

Daily Weather History Graph

Daily Weather History Graph

Search for Another Location

Airport or City:

Trip Planner

Search our weather history database for the weather conditions in past years. The results will help you decide how hot, cold, wet, or windy it might be!

Date:

Astronomy

Jul. 02, 2013 Rise Set
Actual Time 6:28 AM CDT 8:54 PM CDT
Civil Twilight 5:58 AM CDT 9:23 PM CDT
Nautical Twilight 5:22 AM CDT 9:59 PM CDT
Astronomical Twilight 4:42 AM CDT 10:39 PM CDT
Moon 2:24 AM CDT (7/2) 4:15 PM CDT (7/2)
Length of Visible Light 15h 24m
Length of Day
14h 25m
Waning Crescent, 26% of the Moon is Illuminated
Jul 2
Waning Crescent
Jul 8
New
Jul 15
First Quarter
Jul 22
Full
Jul 29
Last Quarter

Hourly Weather History & Observations

Time (CDT) Temp. Dew Point Humidity Pressure Visibility Wind Dir Wind Speed Gust Speed Precip Events Conditions
12:58 AM 63.3 °F 43.5 °F 48% 30.10 in 10.0 mi North 4.6 mph - N/A   Clear
1:58 AM 63.3 °F 44.1 °F 49% 30.09 in 10.0 mi NNE 8.1 mph - N/A   Clear
2:58 AM 62.2 °F 45.7 °F 55% 30.09 in 10.0 mi NNE 8.1 mph - N/A   Clear
3:58 AM 58.5 °F 46.2 °F 64% 30.10 in 10.0 mi NW 1.2 mph - N/A   Clear
4:58 AM 59.2 °F 46.4 °F 63% 30.10 in 10.0 mi West 5.8 mph - N/A   Clear
5:58 AM 61.9 °F 46.0 °F 56% 30.12 in 10.0 mi NW 4.6 mph - N/A   Clear
6:58 AM 58.8 °F 45.9 °F 62% 30.13 in 10.0 mi NW 5.8 mph - N/A   Clear
7:56 AM 64.4 °F 48.2 °F 56% 30.17 in 10.0 mi NNW 4.6 mph - N/A   Clear
8:56 AM 73.4 °F 50.0 °F 44% 30.18 in 10.0 mi NNW 2.3 mph - N/A   Clear
9:56 AM 77.0 °F 46.4 °F 34% 30.18 in 10.0 mi SW 3.5 mph - N/A   Clear
10:56 AM 80.6 °F 46.4 °F 30% 30.17 in 10.0 mi West 8.1 mph - N/A   Clear
11:58 AM 83.5 °F 44.8 °F 26% 30.12 in 10.0 mi North 11.5 mph - N/A   Partly Cloudy
12:13 PM 84.2 °F 44.6 °F 25% 30.16 in 2.5 mi Variable 2.3 mph - N/A   Haze
12:15 PM 84.2 °F 44.6 °F 25% 30.16 in 10.0 mi North 11.5 mph - N/A   Partly Cloudy
12:17 PM 84.2 °F 44.6 °F 25% 30.16 in 10.0 mi North 11.5 mph - N/A   Partly Cloudy
12:23 PM 84.2 °F 44.6 °F 25% 30.16 in 10.0 mi NNW 12.7 mph - N/A   Partly Cloudy
12:33 PM 84.2 °F 44.6 °F 25% 30.15 in 10.0 mi NNE 11.5 mph - N/A   Partly Cloudy
12:36 PM 84.2 °F 44.6 °F 25% 30.15 in 10.0 mi North 11.5 mph - N/A   Partly Cloudy
12:58 PM 86.5 °F 44.4 °F 23% 30.12 in 10.0 mi Variable 4.6 mph - N/A   Clear
1:58 PM 87.1 °F 43.5 °F 22% 30.09 in 10.0 mi SSW 2.3 mph - N/A   Clear
2:23 PM 87.8 °F 42.8 °F 21% 30.11 in 2.5 mi Variable 2.3 mph - N/A   Haze
2:58 PM 88.0 °F 42.4 °F 20% 30.06 in 10.0 mi Variable 2.3 mph - N/A   Partly Cloudy
3:58 PM 89.8 °F 40.3 °F 18% 30.04 in 10.0 mi Variable 6.9 mph 17.3 mph N/A   Partly Cloudy
4:58 PM 88.9 °F 39.4 °F 18% 30.03 in 10.0 mi ESE 4.6 mph - N/A   Clear
5:58 PM 89.1 °F 39.6 °F 18% 30.00 in 10.0 mi ENE 8.1 mph - N/A   Clear
6:58 PM 89.2 °F 38.5 °F 17% 29.99 in 10.0 mi North 10.4 mph - N/A   Partly Cloudy
7:58 PM 86.9 °F 40.6 °F 20% 30.00 in 10.0 mi ENE 9.2 mph - N/A   Clear
8:58 PM 78.8 °F 42.1 °F 27% 30.02 in 10.0 mi East 8.1 mph - N/A   Clear
9:58 PM 74.5 °F 43.2 °F 33% 30.02 in 10.0 mi East 8.1 mph - N/A   Clear
10:58 PM 69.4 °F 43.5 °F 39% 30.04 in 10.0 mi SE 4.6 mph - N/A   Clear
11:58 PM 66.0 °F 43.9 °F 45% 30.06 in 10.0 mi ENE 5.8 mph - N/A   Clear